TimeCST,TemperatureF,Dew PointF,Humidity,Sea Level PressureIn,VisibilityMPH,Wind Direction,Wind SpeedMPH,Gust SpeedMPH,PrecipitationIn,Events,Conditions,WindDirDegrees,DateUTC
12:35 AM,33.8,30.2,87,30.12,10.0,Calm,Calm,-,N/A,,Mostly Cloudy,0,2012-12-27 06:35:00
12:53 AM,36.0,32.0,86,30.12,10.0,NNW,3.5,-,N/A,,Overcast,330,2012-12-27 06:53:00
1:53 AM,37.0,32.0,82,30.12,10.0,North,4.6,-,N/A,,Overcast,360,2012-12-27 07:53:00
2:53 AM,37.9,30.9,76,30.12,10.0,Variable,4.6,-,N/A,,Overcast,0,2012-12-27 08:53:00
3:53 AM,37.0,30.0,76,30.12,10.0,North,9.2,18.4,N/A,,Overcast,350,2012-12-27 09:53:00
4:53 AM,36.0,30.0,79,30.12,10.0,North,8.1,-,N/A,,Overcast,350,2012-12-27 10:53:00
5:33 AM,35.6,28.4,75,30.14,10.0,Variable,4.6,-,N/A,,Overcast,0,2012-12-27 11:33:00
5:53 AM,35.1,28.9,78,30.15,10.0,NNE,6.9,-,N/A,,Overcast,30,2012-12-27 11:53:00
7:53 AM,36.0,30.0,79,30.15,10.0,North,6.9,-,N/A,,Overcast,360,2012-12-27 13:53:00
8:53 AM,37.0,30.0,76,30.19,10.0,Calm,Calm,-,N/A,,Overcast,0,2012-12-27 14:53:00
9:53 AM,39.9,30.9,70,30.20,10.0,NNW,5.8,-,N/A,,Mostly Cloudy,340,2012-12-27 15:53:00
10:01 AM,41.0,30.2,65,30.20,10.0,Variable,4.6,-,N/A,,Scattered Clouds,0,2012-12-27 16:01:00
10:53 AM,43.0,30.9,62,30.19,10.0,NW,4.6,-,N/A,,Clear,310,2012-12-27 16:53:00
11:53 AM,48.0,32.0,54,30.16,10.0,Calm,Calm,-,N/A,,Clear,0,2012-12-27 17:53:00
12:53 PM,50.0,32.0,50,30.12,10.0,Calm,Calm,-,N/A,,Clear,0,2012-12-27 18:53:00
1:53 PM,52.0,32.0,47,30.10,10.0,Calm,Calm,-,N/A,,Clear,0,2012-12-27 19:53:00
2:53 PM,53.1,32.0,45,30.10,10.0,NW,5.8,-,N/A,,Clear,320,2012-12-27 20:53:00
3:53 PM,54.0,34.0,47,30.09,10.0,Calm,Calm,-,N/A,,Clear,0,2012-12-27 21:53:00
4:53 PM,48.9,36.0,61,30.10,10.0,Calm,Calm,-,N/A,,Clear,0,2012-12-27 22:53:00
6:53 PM,37.9,35.1,89,30.12,10.0,Calm,Calm,-,N/A,,Clear,0,2012-12-28 00:53:00
7:53 PM,36.0,34.0,93,30.12,8.0,Calm,Calm,-,N/A,,Clear,0,2012-12-28 01:53:00
8:53 PM,35.1,32.0,89,30.11,7.0,Calm,Calm,-,N/A,,Clear,0,2012-12-28 02:53:00
9:53 PM,33.1,30.0,89,30.12,7.0,Calm,Calm,-,N/A,,Clear,0,2012-12-28 03:53:00
10:53 PM,32.0,30.0,92,30.12,7.0,Calm,Calm,-,N/A,,Clear,0,2012-12-28 04:53:00
11:53 PM,32.0,30.0,92,30.12,7.0,Calm,Calm,-,N/A,,Clear,0,2012-12-28 05:53:00